EST,Max TemperatureF,Mean TemperatureF,Min TemperatureF,Max Dew PointF,MeanDew PointF,Min DewpointF,Max Humidity, Mean Humidity, Min Humidity, Max Sea Level PressureIn, Mean Sea Level PressureIn, Min Sea Level PressureIn, Max VisibilityMiles, Mean VisibilityMiles, Min VisibilityMiles, Max Wind SpeedMPH, Mean Wind SpeedMPH, Max Gust SpeedMPH,PrecipitationIn, CloudCover, Events, WindDirDegrees
2012-12-1,59,46,32,47,39,29,95,82,61,30.20,30.10,29.97,10,6,0,16,6,22,0.00,6,Fog-Rain,156
2012-12-2,58,55,52,52,47,45,93,74,61,30.10,29.98,29.90,10,5,0,16,9,24,0.00,7,Fog-Rain,230
2012-12-3,63,62,62,59,56,56,89,78,76,30.10,29.99,29.89,10,4,0,20,7,31,0.00,7,Fog-Rain,167
2012-12-4,63,52,40,58,40,31,91,72,49,30.19,30.03,29.90,10,9,3,20,10,25,0.00,4,Rain,274
2012-12-5,37,34,28,30,22,19,78,67,53,30.42,30.34,30.20,10,10,10,13,6,18,0.00,0,,34
2012-12-6,39,34,28,34,27,22,86,76,71,30.28,30.11,29.94,10,10,10,10,7,,0.00,2,,161
2012-12-7,45,41,38,42,39,34,95,91,81,29.95,29.91,29.86,10,4,1,7,2,,0.00,8,Rain,160
2012-12-8,43,38,32,42,35,28,95,90,83,30.13,29.96,29.82,10,6,2,10,3,16,0.00,8,Rain,32
2012-12-9,40,36,32,39,33,28,96,90,83,30.13,29.91,29.67,10,6,0,14,7,22,0.00,8,Fog-Rain-Snow,102
2012-12-10,40,36,31,40,32,26,95,87,78,29.89,29.73,29.65,10,8,2,13,7,22,0.00,8,Snow,272
2012-12-11,34,30,27,29,23,20,92,76,60,30.15,30.01,29.88,10,10,2,16,5,20,0.00,4,Snow,222
2012-12-12,41,32,23,26,24,20,89,75,51,30.34,30.28,30.15,10,10,7,13,6,18,0.00,0,,196
2012-12-13,44,36,27,28,25,23,85,71,45,30.33,30.26,30.15,10,10,10,17,7,21,0.00,0,,193
2012-12-14,46,36,25,31,27,22,90,75,53,30.24,30.18,30.12,10,9,5,7,3,,0.00,0,,189
2012-12-15,47,38,29,46,35,26,94,84,63,30.12,29.87,29.64,10,7,2,14,5,25,0.00,6,Rain,147
2012-12-16,48,44,39,47,43,37,94,91,87,29.70,29.64,29.60,10,5,2,12,7,16,0.00,8,Rain,233
2012-12-17,40,38,35,36,34,32,89,83,73,29.73,29.69,29.63,10,9,4,12,3,,0.00,8,,284
2012-12-18,37,32,28,34,31,26,94,87,75,29.80,29.72,29.67,10,5,2,13,4,,0.00,7,Rain,190
2012-12-19,40,36,32,36,33,30,95,87,77,30.08,29.97,29.71,10,5,1,12,2,,0.00,6,Rain,60
2012-12-20,48,40,32,46,36,30,94,87,74,29.97,29.40,29.10,10,6,2,22,13,33,0.00,8,Rain-Snow,144
2012-12-21,35,34,32,33,29,25,96,86,72,30.02,29.62,29.11,10,5,0,29,15,43,0.00,8,Snow,318
2012-12-22,33,26,20,25,23,17,89,77,66,30.14,30.07,30.01,10,10,10,18,11,25,0.00,4,,270
2012-12-23,33,26,18,24,21,16,93,81,68,30.02,29.96,29.90,10,9,4,8,3,,0.00,4,,17
2012-12-24,32,27,22,28,23,19,90,84,78,30.03,29.90,29.80,10,9,1,12,4,20,0.00,4,Snow,44
2012-12-25,32,25,18,23,20,16,91,77,64,30.30,30.21,30.03,10,9,5,14,4,17,0.00,3,,36
2012-12-26,29,26,23,25,22,18,90,81,68,30.22,29.99,29.87,10,7,0,21,13,31,0.00,8,Snow,27
2012-12-27,30,26,21,23,20,17,93,81,69,30.15,30.09,29.97,10,10,5,14,6,20,0.00,7,Snow,330
2012-12-28,29,24,19,27,24,18,94,89,83,30.14,30.05,29.89,10,5,0,7,2,,0.00,8,Fog-Snow,124
2012-12-29,31,26,22,27,25,20,94,88,80,30.10,29.91,29.83,7,4,1,6,3,,0.00,8,Snow,330
2012-12-30,30,24,17,27,18,13,90,82,71,30.34,30.24,30.10,10,7,2,17,10,25,0.00,4,Snow,220
2012-12-31,34,28,23,27,23,18,82,74,66,30.15,30.02,29.95,10,10,7,16,11,22,0.00,4,,246